Location: Caltech
(34.1382°N, 118.1253°W)
Time: 01:17:11
(UTC-07:00)

Cosmos 1408 Rocket - Visible Passes

Search period start: 02 May 2016 00:00
Search period end: 12 May 2016 00:00
Orbit: 602 x 631 km, 82.6° (Epoch: 01 May)

Date Brightness Start Highest point End Pass type
(mag) Time Alt. Az. Time Alt. Az. Time Alt. Az.
02 May 6.0 02:42:18 18° ENE 02:42:18 18° ENE 02:44:31 10° NE visible
02 May 4.7 04:19:25 27° WNW 04:19:25 27° WNW 04:22:45 10° NNW visible
03 May 5.2 02:58:57 31° ENE 02:58:57 31° ENE 03:01:49 10° NNE visible
03 May 5.5 04:36:04 14° WNW 04:36:04 14° WNW 04:38:10 10° NW visible
04 May 4.6 03:15:34 44° NNE 03:15:34 44° NNE 03:18:38 10° N visible
05 May 4.6 03:32:10 38° NNW 03:32:10 38° NNW 03:35:06 10° N visible
06 May 6.3 02:11:38 15° ENE 02:11:38 15° ENE 02:12:54 10° NE visible
06 May 5.1 03:48:45 24° NW 03:48:45 24° NW 03:51:12 10° NNW visible
07 May 5.8 02:28:12 23° NE 02:28:12 23° NE 02:30:14 10° NNE visible
07 May 5.7 04:05:18 14° NW 04:05:18 14° NW 04:06:41 10° NW visible
08 May 5.3 02:44:45 30° NNE 02:44:45 30° NNE 02:47:03 10° N visible
09 May 5.2 03:01:16 28° NNW 03:01:16 28° NNW 03:03:32 10° N visible
10 May 6.5 01:40:41 12° NE 01:40:41 12° NE 01:41:17 10° NE visible
10 May 5.5 03:17:47 21° NW 03:17:47 21° NW 03:19:40 10° NNW visible
11 May 6.1 01:57:11 19° NE 01:57:11 19° NE 01:58:38 10° NNE visible
11 May 5.9 03:34:17 13° NW 03:34:17 13° NW 03:35:11 10° NW visible
